Weather History for CWSS - February, 2013

Change the Weather History Date:

Thursday, February 21, 2013

  Actual Average Record
Temperature  
Mean Temperature 30 °F -  
Max Temperature 34 °F - - ()
Min Temperature 27 °F - - ()
Degree Days  
Heating Degree Days 34    
Moisture  
Dew Point 23 °F    
Average Humidity 73    
Maximum Humidity 90    
Minimum Humidity 56    
Precipitation  
Precipitation 0.00 in - - ()
Sea Level Pressure  
Sea Level Pressure 29.67 in    
Wind  
Wind Speed 8 mph ()    
Max Wind Speed 18 mph    
Max Gust Speed 31 mph    
T = Trace of Precipitation, MM = Missing Value Source: Averaged Metar Reports

Daily Weather History Graph

Daily Weather History Graph

Search for Another Location

Airport or City:

Trip Planner

Search our weather history database for the weather conditions in past years. The results will help you decide how hot, cold, wet, or windy it might be!

Date:

Astronomy

Feb. 21, 2013 Rise Set
Actual Time 7:20 AM AST 6:05 PM AST
Civil Twilight 6:50 AM AST 6:35 PM AST
Nautical Twilight 6:16 AM AST 7:09 PM AST
Astronomical Twilight 5:42 AM AST 7:43 PM AST
Moon 2:09 PM AST (2/21) 4:29 AM AST (2/21)
Length of Visible Light 11h 44m
Length of Day
10h 45m
Waxing Gibbous, 83% of the Moon is Illuminated
Feb 21
Waxing Gibbous
Feb 25
Full
Mar 4
Last Quarter
Mar 11
New
Mar 19
First Quarter

Hourly Weather History & Observations

Time (AST) Temp. Windchill Dew Point Humidity Pressure Visibility Wind Dir Wind Speed Gust Speed Precip Events Conditions
12:00 AM 29.5 °F 23.4 °F 20.7 °F 70% 29.49 in - West 5.8 mph - N/A   Unknown
1:00 AM 28.6 °F 21.5 °F 19.4 °F 69% 29.51 in - West 6.9 mph - N/A   Unknown
2:00 AM 28 °F - 19 °F 59% 29.52 in - West 6.9 mph - -  
2:00 AM 28.0 °F 20.8 °F 19.4 °F 70% 29.52 in - West 6.9 mph - N/A   Unknown
3:00 AM 27.7 °F 21.3 °F 19.4 °F 71% 29.53 in - West 5.8 mph - N/A   Unknown
4:00 AM 27.7 °F 20.4 °F 19.9 °F 73% 29.53 in - West 6.9 mph - N/A   Unknown
5:00 AM 28 °F - 20 °F 62% 29.55 in - West 8.1 mph - -  
5:00 AM 27.5 °F 19.3 °F 20.1 °F 74% 29.55 in - WNW 8.1 mph - N/A   Unknown
6:00 AM 27.5 °F 21.1 °F 20.5 °F 75% 29.57 in - West 5.8 mph - N/A   Unknown
7:00 AM 27.3 °F 19.9 °F 20.7 °F 76% 29.57 in - West 6.9 mph - N/A   Unknown
8:00 AM 27 °F - 20 °F 67% 29.59 in - West 6.9 mph - -  
8:00 AM 27.1 °F 19.7 °F 20.3 °F 75% 29.59 in - West 6.9 mph - N/A   Unknown
9:00 AM 27.7 °F 20.4 °F 19.4 °F 71% 29.61 in - West 6.9 mph - N/A   Unknown
10:00 AM 28.8 °F 21.7 °F 19.0 °F 67% 29.62 in - West 6.9 mph - N/A   Unknown
11:00 AM 28 °F - 18 °F 56% 29.63 in - West 10.4 mph - -  
11:00 AM 28.2 °F 18.9 °F 18.5 °F 67% 29.63 in - West 10.4 mph - N/A   Unknown
12:00 PM 30.2 °F 21.3 °F 20.1 °F 66% 29.63 in - West 10.4 mph - N/A   Unknown
1:00 PM 30.4 °F 21.5 °F 21.7 °F 70% 29.64 in - WNW 10.4 mph 18.4 mph N/A   Unknown
2:00 PM 31 °F - 24 °F 66% 29.64 in - WNW 9.2 mph - -  
2:00 PM 30.7 °F 22.6 °F 23.9 °F 76% 29.64 in - WNW 9.2 mph - N/A   Unknown
3:00 PM 31.8 °F 24.6 °F 26.4 °F 80% 29.65 in - WNW 8.1 mph - N/A   Unknown
4:00 PM 33.6 °F 28.4 °F 31.1 °F 90% 29.66 in - NNW 5.8 mph - N/A   Unknown
5:00 PM 34 °F - 31 °F 82% 29.70 in - North 11.5 mph - -  
5:00 PM 34.0 °F 25.5 °F 30.6 °F 87% 29.70 in - North 11.5 mph 20.7 mph N/A   Unknown
6:00 PM 33.4 °F 24.8 °F 28.9 °F 84% 29.75 in - North 11.5 mph 18.4 mph N/A   Unknown
7:00 PM 33.1 °F 23.9 °F 28.9 °F 85% 29.81 in - North 12.7 mph 21.9 mph N/A   Unknown
8:00 PM 33 °F - 28 °F 75% 29.86 in - North 12.7 mph - -  
8:00 PM 31.5 °F 21.8 °F 28.0 °F 87% 29.86 in - North 12.7 mph 21.9 mph N/A   Unknown
9:00 PM 31.3 °F 21.6 °F 26.8 °F 83% 29.90 in - North 12.7 mph 20.7 mph N/A   Unknown
10:00 PM 33.3 °F 23.2 °F 25.7 °F 74% 29.95 in - North 15.0 mph 24.2 mph N/A   Unknown
11:00 PM 33 °F - 25 °F 62% 29.99 in - North 18.4 mph - -  
11:00 PM 33.4 °F 22.3 °F 24.8 °F 71% 29.99 in - North 18.4 mph 31.1 mph N/A   Unknown